Temp
-2 -2 -2 -2 -2 -1 -1 -1 -1 -1 -1 -0 0 0 0 1 -0 -0 1 1 1 -0 1 3 3 6 8 8 9 10 9 8 9 10 9 9 9 10 11 12 13 11 10 8 7 8 11 14 16 14 14 15 16 16
-3 -3 -3 -2 -2 -2 -1 -2 -1 -1 -1 -1 -0 0 0 0 -0 0 0 1 1 0 1 3 3 6 8 8 9 8 11 10 9 10 8 9 9 9 9 11 13 11 10 10 12 10 14 15 16 17 17 17 16 16
-3 -3 -2 -2 -2 -2 -2 -2 -1 -1 -1 -1 -1 -0 0 -1 -1 -0 0 0 1 0 1 2 4 6 6 8 8 8 8 10 9 12 9 10 11 9 9 9 12 13 12 11 12 13 14 16 17 17 17 17 16 16
-3 -3 -2 -2 -2 -2 -2 -2 -1 -1 -1 -1 -1 -1 -0 -1 -0 -0 0 1 1 -0 1 4 4 6 6 7 7 7 8 9 10 10 8 9 10 11 9 11 10 11 12 10 11 13 14 15 16 16 16 16 16 15
-3 -3 -3 -3 -2 -2 -2 -2 -2 -1 -1 -1 -1 -1 -1 -1 -0 -0 -0 1 1 -0 0 2 4 6 6 7 7 7 8 10 9 8 8 8 8 10 9 9 10 12 11 11 9 13 14 14 16 16 16 16 15 15
-3 -3 -3 -3 -2 -2 -2 -2 -2 -2 -1 -1 -1 -0 -1 -1 -0 -1 1 2 1 0 -0 2 3 5 5 6 7 8 7 8 10 8 7 8 9 9 7 8 11 14 16 16 13 16 16 16 16 16 15 15 14 14
-3 -3 -3 -3 -3 -3 -2 -2 -2 -2 -1 -1 -1 -1 -1 -1 -0 -1 0 1 0 -0 1 1 2 5 6 6 6 6 6 6 7 7 7 7 8 9 5 8 12 14 16 16 17 16 14 15 15 15 14 14 13 13
-3 -3 -3 -3 -3 -3 -3 -2 -2 -2 -2 -1 -1 -1 -1 -1 -1 -1 1 1 -0 -0 1 1 2 3 5 5 4 6 6 5 6 6 7 7 7 7 6 10 13 14 15 15 16 16 16 15 14 14 14 13 13 12
-4 -3 -3 -3 -3 -3 -3 -3 -2 -2 -2 -1 -1 -1 -1 -1 -1 -0 0 0 0 0 0 1 3 4 4 4 4 5 5 3 5 5 6 7 6 6 8 10 11 13 15 15 14 15 15 14 13 13 13 13 13 12
-4 -4 -4 -3 -3 -3 -3 -3 -3 -2 -2 -2 -2 -1 -1 -1 -1 -0 0 0 -0 1 1 1 3 3 4 3 3 3 3 3 3 5 6 5 6 8 10 13 13 13 14 15 13 13 13 13 13 12 13 12 12 12
-4 -4 -4 -3 -3 -3 -3 -3 -3 -2 -2 -2 -2 -1 -1 -1 -0 -0 -0 -1 -0 0 0 3 3 4 4 3 3 3 2 3 4 4 5 4 4 5 12 12 13 13 13 13 14 13 13 13 12 12 11 11 11 11
-4 -4 -3 -4 -4 -3 -3 -3 -3 -3 -2 -2 -1 -1 -1 -1 -1 -1 -0 -0 0 2 2 3 5 5 4 4 3 3 3 3 4 4 4 5 4 8 10 11 12 12 13 13 13 13 13 13 12 12 11 11 10 10
-4 -4 -4 -4 -4 -4 -3 -3 -3 -3 -2 -2 -1 -1 -1 -1 -1 -0 1 1 2 1 3 5 4 5 4 3 2 3 3 4 4 3 4 4 6 9 10 12 12 12 12 12 12 12 12 11 11 11 11 10 10 9
-4 -4 -4 -4 -4 -4 -3 -3 -3 -3 -2 -2 -2 -1 -1 -1 -1 0 1 2 2 3 5 6 3 3 4 3 2 3 3 3 3 3 4 2 7 10 11 11 12 11 11 12 11 11 11 11 10 9 9 9 9 9
-4 -4 -4 -4 -4 -4 -3 -3 -3 -2 -2 -2 -1 -1 -1 -0 1 2 2 2 3 5 6 5 4 4 2 3 3 3 3 3 4 4 3 6 10 11 11 10 10 11 11 11 11 11 10 10 9 9 9 9 8 8
-4 -4 -4 -4 -4 -3 -3 -3 -3 -3 -2 -1 -1 -1 -0 0 -1 1 2 2 4 6 6 5 3 2 3 3 4 4 4 5 4 2 9 10 10 11 11 10 10 10 11 11 10 10 9 9 9 8 8 8 8 8
-4 -4 -2 -3 -4 -3 -3 -3 -2 -2 -2 -2 -2 -1 -1 -1 0 1 2 3 5 6 2 2 3 4 2 2 3 2 2 2 3 6 8 9 9 9 10 10 10 10 10 10 9 9 9 8 8 7 7 7 7 7
-3 -2 -2 -2 -2 -3 -2 -3 -2 -2 -3 -2 -1 -0 -0 1 -0 1 2 1 3 6 4 4 4 4 2 4 3 2 4 7 8 9 9 9 9 10 10 10 10 10 9 9 9 9 8 8 7 7 7 7 7 7
-2 -2 -2 -2 -2 -2 -2 -2 -2 -2 -2 -1 -1 0 0 1 1 1 2 -0 1 5 7 4 4 3 3 1 2 6 7 9 8 8 9 9 9 9 9 9 9 9 9 8 8 8 8 8 7 7 7 6 6 6
-2 -2 -2 -2 -2 -1 -2 -2 -0 -0 -2 -0 -0 0 1 1 1 1 2 1 1 4 4 3 3 3 5 9 10 11 10 9 9 8 8 9 9 9 9 9 8 8 8 7 7 7 7 6 6 6 6 6 5 5
-2 -2 -2 -2 -1 1 0 -1 -1 -0 -0 -0 0 0 -0 0 0 1 0 0 2 2 1 4 5 8 8 9 10 10 9 9 9 9 9 8 9 9 8 8 8 7 7 7 7 6 6 6 6 5 5 5 5 4
-2 -2 -2 -2 -2 -0 -0 1 1 0 0 0 0 -0 -1 -1 -0 -0 -0 -0 1 4 5 6 6 7 7 8 8 9 9 9 9 9 8 8 7 7 7 7 7 7 6 6 6 6 6 6 5 5 5 4 4 4
-2 -2 -2 -2 -2 -2 -1 0 1 -0 -0 0 -0 0 0 -0 -0 -0 -0 0 3 5 6 6 7 8 7 7 8 8 8 8 7 7 7 7 7 7 7 7 6 7 6 6 5 5 6 5 5 4 4 4 4 3
-2 -2 -2 -2 -2 -2 -1 -1 0 -1 -0 -0 0 1 1 0 -0 -0 1 0 3 5 6 6 6 6 6 7 7 7 7 8 8 7 7 8 7 6 6 6 6 5 5 5 5 5 5 4 4 4 4 3 3 3
-2 -2 -1 -3 -1 -1 -2 0 -0 -1 -0 -0 0 -0 -0 -0 0 0 0 0 3 5 5 6 6 6 6 5 6 6 6 7 7 6 6 6 6 6 5 5 5 4 4 4 4 4 4 4 3 3 3 3 3 2
-2 -2 -1 -1 -2 -2 -1 -3 -3 -2 -2 -2 -0 -1 -0 -1 -0 -0 1 1 4 5 5 5 6 5 5 5 5 5 5 5 5 5 5 4 4 4 4 4 3 3 3 3 3 3 3 3 3 3 3 3 2 1
-1 -1 -1 -0 1 0 -2 -1 -0 -1 -2 -2 -1 -1 -0 -1 -1 1 2 4 4 4 4 4 4 5 5 5 5 5 5 4 4 4 4 4 4 4 3 3 3 3 3 2 2 2 2 2 2 2 2 2 1 1
-1 -0 -2 0 -0 0 -3 -3 -2 -2 -1 -1 -0 -1 -0 -1 -0 0 1 3 3 4 4 4 4 4 4 4 4 4 4 4 4 4 3 3 3 3 2 2 2 2 2 2 2 2 2 2 2 2 1 1 1 0
-1 1 1 -2 -2 -1 -2 -2 -1 0 0 0 -0 -1 -1 -2 -1 0 1 2 3 4 4 4 3 4 4 3 3 3 3 3 3 3 3 3 2 2 2 2 1 0 1 1 1 1 2 2 2 2 1 1 0 -1
-1 -0 -2 -3 -2 -2 -3 -2 -2 -1 2 1 -1 -2 -3 -3 -1 0 1 1 2 3 3 3 3 3 3 3 3 3 3 3 3 3 3 3 2 2 1 -0 -2 -1 -1 -1 0 1 1 1 1 1 1 1 -1 -1
-1 -1 -3 -3 -3 -3 -2 -2 -1 -1 -1 -2 -2 -2 -3 -3 -2 -1 -1 -0 1 2 2 2 2 2 2 3 3 3 4 4 4 4 3 2 1 0 -0 -0 -1 -1 -1 -1 -1 -0 0 0 1 1 0 -0 -1 -2
-2 -2 -3 -3 -3 -2 -2 -2 -2 -2 -2 -3 -3 -3 -3 -3 -4 -4 -4 -3 -2 1 1 1 1 1 2 3 3 3 3 3 3 2 2 1 1 1 -0 -1 -1 -2 -1 -1 -1 -1 -1 -1 -1 -1 -2 -2 -3 -3
-2 -2 -2 -2 -2 -3 -1 -1 -1 -2 -1 -2 -3 -3 -3 -3 -4 -4 -4 -4 -3 -4 -2 -0 1 1 2 2 2 2 2 1 0 1 1 0 -1 -2 -2 -2 -2 -1 -1 -1 -2 -2 -2 -2 -2 -3 -3 -4 -4 -5
Height
1390 1394 1398 1402 1405 1408 1411 1413 1415 1417 1419 1420 1421 1422 1422 1423 1424 1424 1422 1422 1421 1412 1400 1396 1391 1385 1383 1384 1388 1391 1405 1404 1407 1409 1419 1418 1425 1420 1423 1425 1425 1440 1454 1465 1475 1475 1469 1441 1442 1451 1447 1448 1449 1454
1385 1388 1392 1397 1400 1402 1405 1407 1409 1411 1412 1414 1415 1415 1415 1416 1416 1415 1413 1415 1413 1408 1386 1385 1378 1374 1374 1371 1381 1382 1380 1388 1391 1400 1410 1410 1417 1408 1415 1428 1418 1434 1429 1443 1443 1447 1433 1434 1433 1439 1442 1445 1451 1454
1382 1385 1389 1392 1394 1396 1398 1400 1402 1404 1405 1407 1408 1408 1409 1409 1410 1409 1406 1407 1406 1402 1386 1381 1370 1363 1368 1370 1372 1374 1381 1377 1384 1389 1395 1396 1401 1401 1413 1417 1415 1415 1418 1426 1432 1428 1429 1433 1436 1438 1443 1445 1450 1453
1378 1381 1383 1386 1389 1391 1393 1394 1395 1397 1398 1399 1400 1401 1402 1403 1401 1401 1400 1399 1400 1400 1386 1365 1362 1363 1360 1359 1369 1374 1369 1375 1380 1388 1390 1389 1394 1389 1400 1399 1406 1409 1413 1421 1425 1421 1427 1430 1433 1435 1442 1446 1450 1454
1372 1375 1378 1381 1383 1385 1386 1388 1389 1390 1391 1392 1393 1394 1395 1394 1394 1394 1393 1393 1393 1395 1383 1369 1360 1358 1355 1360 1362 1367 1370 1370 1376 1385 1390 1393 1391 1389 1393 1397 1402 1399 1406 1415 1421 1412 1419 1424 1429 1434 1439 1444 1448 1451
1367 1370 1373 1375 1377 1379 1380 1382 1383 1384 1385 1385 1385 1386 1386 1388 1389 1389 1387 1384 1384 1385 1383 1367 1357 1355 1352 1359 1363 1366 1365 1368 1372 1381 1383 1385 1387 1389 1396 1400 1391 1391 1395 1398 1403 1410 1416 1421 1427 1432 1436 1441 1444 1449
1362 1364 1367 1369 1371 1373 1374 1376 1377 1378 1379 1379 1380 1381 1382 1382 1381 1382 1379 1379 1380 1381 1377 1368 1355 1353 1352 1355 1360 1364 1367 1363 1367 1375 1378 1385 1389 1387 1396 1396 1385 1388 1391 1397 1402 1407 1416 1421 1426 1431 1435 1439 1443 1447
1356 1358 1361 1363 1365 1367 1368 1370 1372 1373 1374 1375 1375 1377 1378 1378 1377 1375 1372 1371 1373 1372 1368 1356 1350 1350 1351 1353 1357 1363 1369 1373 1372 1376 1380 1383 1388 1390 1396 1390 1388 1391 1392 1395 1401 1405 1411 1419 1424 1429 1433 1437 1441 1444
1350 1352 1355 1357 1359 1362 1364 1365 1367 1368 1370 1372 1373 1373 1373 1370 1369 1368 1368 1367 1363 1366 1357 1348 1344 1348 1347 1353 1360 1368 1371 1379 1378 1376 1378 1382 1386 1389 1383 1381 1388 1386 1387 1393 1400 1403 1407 1413 1420 1425 1430 1435 1439 1443
1344 1346 1348 1351 1354 1356 1359 1361 1362 1363 1366 1369 1371 1371 1367 1364 1365 1364 1361 1359 1354 1352 1351 1344 1339 1343 1344 1356 1369 1374 1375 1378 1380 1382 1379 1383 1383 1378 1376 1375 1382 1386 1388 1391 1397 1403 1407 1412 1417 1422 1427 1431 1438 1441
1337 1339 1342 1345 1347 1350 1353 1356 1358 1360 1363 1364 1365 1364 1361 1361 1359 1356 1350 1350 1346 1345 1340 1335 1334 1336 1349 1357 1365 1370 1376 1377 1376 1378 1377 1382 1383 1375 1373 1372 1378 1383 1387 1391 1397 1401 1405 1409 1415 1420 1426 1430 1436 1438
1330 1332 1335 1338 1341 1345 1348 1352 1354 1356 1358 1360 1361 1360 1360 1359 1352 1348 1341 1338 1339 1336 1331 1329 1331 1337 1347 1353 1362 1374 1374 1376 1376 1375 1380 1381 1365 1362 1365 1366 1371 1377 1383 1388 1394 1401 1406 1411 1415 1420 1423 1429 1433 1433
1323 1326 1330 1333 1335 1339 1343 1347 1350 1354 1357 1359 1360 1358 1356 1351 1346 1340 1333 1334 1331 1327 1326 1328 1332 1338 1349 1356 1364 1367 1369 1375 1376 1378 1370 1358 1352 1355 1359 1363 1369 1373 1378 1385 1393 1398 1404 1410 1415 1418 1421 1426 1428 1430
1316 1320 1323 1326 1330 1334 1338 1343 1346 1352 1355 1356 1356 1353 1349 1343 1339 1332 1331 1328 1323 1323 1324 1328 1330 1337 1346 1355 1361 1367 1372 1372 1379 1379 1363 1351 1348 1352 1354 1360 1365 1370 1377 1384 1391 1397 1404 1409 1413 1417 1421 1424 1427 1431
1310 1314 1317 1321 1324 1329 1334 1339 1343 1348 1351 1350 1349 1342 1339 1332 1329 1329 1327 1323 1323 1323 1323 1326 1330 1336 1344 1353 1355 1364 1372 1371 1365 1355 1351 1342 1344 1347 1350 1355 1363 1368 1375 1382 1389 1395 1403 1408 1412 1418 1420 1421 1426 1430
1304 1307 1307 1314 1319 1325 1331 1336 1339 1345 1341 1344 1340 1335 1331 1330 1328 1326 1323 1321 1320 1321 1325 1326 1334 1342 1346 1348 1352 1356 1362 1356 1347 1347 1340 1341 1341 1343 1350 1355 1360 1366 1373 1381 1388 1395 1403 1409 1414 1417 1418 1421 1425 1428
1296 1294 1296 1302 1310 1320 1328 1333 1335 1339 1339 1335 1331 1330 1332 1330 1326 1323 1320 1318 1318 1320 1326 1330 1336 1336 1341 1350 1349 1345 1345 1338 1330 1332 1336 1337 1339 1345 1354 1358 1362 1367 1375 1384 1391 1396 1401 1407 1413 1416 1418 1420 1423 1425
1286 1286 1291 1295 1304 1317 1322 1328 1330 1332 1331 1326 1326 1325 1328 1326 1324 1323 1320 1318 1320 1319 1320 1324 1325 1333 1337 1334 1332 1330 1327 1328 1328 1330 1336 1340 1344 1350 1357 1362 1366 1370 1378 1384 1390 1397 1401 1406 1410 1415 1417 1418 1421 1423
1283 1286 1289 1294 1300 1310 1316 1323 1324 1325 1321 1320 1320 1321 1324 1323 1321 1320 1317 1318 1319 1320 1320 1320 1323 1326 1326 1323 1322 1323 1326 1326 1327 1333 1340 1347 1348 1354 1361 1366 1370 1374 1382 1385 1391 1396 1400 1405 1410 1413 1416 1418 1419 1420
1282 1286 1289 1294 1302 1307 1313 1316 1320 1322 1322 1320 1320 1320 1320 1319 1316 1313 1312 1315 1317 1319 1317 1318 1318 1317 1318 1317 1318 1318 1319 1322 1330 1340 1347 1353 1355 1359 1363 1366 1371 1377 1382 1387 1392 1395 1400 1405 1410 1412 1413 1413 1415 1417
1283 1286 1292 1298 1303 1305 1307 1309 1313 1316 1318 1319 1318 1318 1319 1317 1318 1318 1316 1313 1316 1316 1316 1313 1312 1311 1312 1315 1319 1320 1322 1328 1334 1337 1345 1353 1358 1363 1368 1371 1374 1379 1384 1388 1393 1397 1401 1404 1406 1407 1409 1411 1413 1414
1279 1288 1295 1303 1305 1305 1304 1304 1306 1312 1316 1318 1319 1318 1320 1318 1316 1315 1313 1312 1313 1309 1309 1311 1311 1314 1319 1321 1322 1322 1328 1335 1340 1345 1351 1354 1359 1365 1370 1372 1377 1381 1385 1389 1392 1395 1398 1401 1403 1405 1406 1408 1408 1408
1280 1290 1297 1302 1304 1304 1304 1303 1305 1309 1312 1314 1315 1314 1313 1316 1316 1315 1315 1311 1310 1310 1311 1314 1316 1320 1321 1322 1325 1331 1336 1340 1345 1350 1355 1360 1366 1369 1372 1374 1378 1381 1385 1388 1392 1394 1396 1398 1400 1402 1403 1403 1403 1403
1284 1291 1296 1299 1301 1302 1302 1302 1304 1307 1312 1312 1312 1314 1314 1315 1317 1317 1315 1312 1311 1311 1312 1317 1321 1323 1329 1332 1335 1339 1342 1347 1351 1354 1359 1362 1366 1371 1374 1377 1380 1383 1386 1388 1390 1392 1394 1396 1397 1397 1398 1397 1397 1398
1283 1291 1292 1295 1295 1296 1298 1301 1303 1306 1309 1311 1315 1317 1318 1319 1320 1318 1314 1315 1312 1314 1317 1323 1328 1332 1333 1336 1339 1343 1347 1350 1353 1356 1361 1365 1368 1371 1374 1377 1379 1382 1383 1384 1386 1388 1389 1391 1392 1393 1393 1393 1393 1392
1280 1283 1285 1284 1291 1293 1292 1302 1303 1304 1307 1312 1314 1317 1319 1320 1319 1317 1313 1313 1316 1317 1321 1324 1329 1333 1337 1340 1343 1346 1349 1354 1358 1361 1364 1367 1370 1372 1373 1374 1376 1378 1380 1381 1382 1383 1383 1384 1385 1386 1387 1387 1387 1386
1280 1281 1282 1284 1285 1285 1289 1293 1296 1297 1304 1309 1309 1310 1311 1317 1318 1312 1312 1315 1318 1323 1326 1330 1334 1337 1339 1342 1346 1350 1353 1357 1360 1362 1364 1366 1368 1369 1371 1371 1373 1375 1375 1376 1377 1377 1379 1378 1378 1378 1379 1379 1379 1379
1275 1274 1276 1277 1279 1283 1288 1291 1292 1295 1297 1299 1301 1306 1309 1313 1313 1313 1314 1316 1320 1324 1328 1332 1336 1339 1342 1345 1349 1352 1354 1357 1359 1360 1362 1364 1365 1366 1368 1369 1369 1369 1370 1370 1371 1371 1372 1372 1370 1370 1371 1372 1373 1374
1274 1274 1275 1276 1276 1283 1291 1294 1295 1295 1296 1297 1301 1308 1311 1314 1315 1315 1317 1319 1322 1325 1329 1333 1337 1341 1344 1347 1350 1352 1354 1356 1357 1358 1359 1361 1362 1363 1363 1363 1364 1366 1366 1365 1365 1365 1365 1365 1365 1365 1365 1366 1367 1368
1277 1278 1281 1285 1288 1291 1291 1290 1291 1293 1295 1299 1304 1309 1314 1316 1317 1319 1321 1324 1327 1329 1333 1336 1339 1341 1343 1346 1349 1351 1352 1353 1354 1356 1356 1357 1359 1360 1361 1361 1361 1361 1361 1362 1364 1363 1362 1362 1362 1362 1362 1363 1363 1364
1277 1279 1282 1286 1291 1294 1296 1297 1297 1297 1300 1304 1305 1309 1313 1318 1321 1324 1326 1328 1331 1333 1335 1337 1339 1341 1343 1344 1346 1348 1349 1352 1353 1355 1355 1357 1357 1359 1360 1360 1359 1360 1359 1359 1361 1361 1360 1359 1360 1361 1361 1361 1362 1362
1282 1285 1288 1292 1297 1299 1298 1300 1304 1308 1310 1312 1315 1318 1320 1322 1326 1329 1330 1331 1333 1334 1336 1338 1339 1339 1341 1343 1345 1347 1349 1350 1351 1352 1353 1354 1355 1356 1356 1356 1358 1357 1355 1355 1355 1356 1356 1357 1358 1359 1359 1360 1361 1361
1290 1291 1293 1296 1299 1300 1302 1301 1304 1310 1312 1316 1319 1319 1320 1323 1327 1330 1331 1332 1335 1335 1335 1336 1338 1340 1341 1343 1345 1346 1348 1349 1350 1351 1351 1351 1352 1353 1353 1353 1352 1351 1350 1349 1350 1351 1352 1354 1356 1357 1357 1358 1359 1361
Wind_Speed
21 31 19 18 18 18 18 18 17 17 17 18 19 21 21 23 22 24 29 33 34 17 36 44 49 41 34 28 15 21 17 8 11 12 6 4 4 6 5 7 12 7 7 4 3 3 7 12 3 11 6 8 17 26
16 17 16 19 18 18 18 19 18 18 18 18 20 21 22 23 22 22 26 27 32 33 36 31 37 43 33 30 30 14 16 14 9 5 4 4 5 4 7 8 4 6 7 7 10 7 5 10 7 11 25 28 26 27
17 16 18 18 18 18 19 20 19 19 20 19 20 20 22 22 22 20 23 26 24 21 40 37 27 21 35 39 30 6 15 17 12 13 4 3 4 4 5 4 4 1 4 5 5 5 6 17 17 25 26 24 23 23
19 19 18 17 17 18 19 19 19 19 20 20 20 20 20 23 21 16 15 26 26 13 6 9 28 28 24 29 38 36 13 21 23 9 2 2 3 3 4 5 5 5 9 7 2 4 11 12 26 27 23 22 24 19
19 18 18 18 18 18 18 18 18 19 20 20 20 19 18 22 17 16 18 23 32 15 4 10 9 17 10 22 13 13 17 25 19 3 2 4 3 3 1 3 3 7 6 7 5 13 13 15 27 26 26 23 19 17
18 18 18 18 17 17 17 17 18 18 19 19 19 18 18 19 14 12 6 17 27 24 8 3 5 12 15 27 21 22 8 17 13 9 3 5 1 2 3 3 4 9 22 25 8 24 23 26 29 28 26 22 21 18
18 18 17 17 16 16 16 16 16 17 18 18 17 17 18 19 14 15 7 5 6 6 6 3 3 10 16 15 10 8 12 7 4 6 3 3 2 4 2 3 3 11 25 27 27 28 24 31 27 27 27 24 20 18
17 19 19 16 16 15 16 15 14 15 15 16 16 15 15 16 15 21 23 29 24 13 8 3 1 2 12 4 4 8 6 2 6 4 4 3 5 4 3 8 8 17 19 23 32 29 29 26 25 23 22 23 20 17
17 18 19 18 16 14 16 15 14 14 14 14 13 12 11 10 9 15 15 13 20 12 3 3 5 4 9 7 7 5 4 2 1 2 1 6 3 4 7 14 19 15 15 21 24 20 30 32 29 27 24 19 17 16
17 19 19 20 19 17 15 14 14 12 13 13 10 6 5 6 9 9 8 6 8 7 6 3 6 3 10 5 3 3 4 1 2 3 4 2 2 14 14 19 19 20 23 29 31 30 31 30 29 27 20 17 17 15
19 20 21 21 21 18 16 15 14 12 13 13 7 5 8 8 6 7 5 6 5 3 5 6 7 7 5 4 3 3 2 1 1 2 4 2 3 5 24 23 20 15 18 20 22 25 24 25 27 25 23 19 15 10
21 21 20 19 19 17 17 17 16 18 12 9 5 6 5 4 6 4 3 1 3 4 3 3 9 11 8 6 4 2 2 1 2 5 3 3 4 12 34 26 22 23 19 17 19 19 17 21 26 26 23 17 12 10
22 22 20 21 19 17 18 18 19 21 12 13 6 3 5 6 4 3 4 3 3 3 6 13 6 8 6 7 3 2 3 2 4 1 3 5 3 13 32 30 26 23 25 25 23 20 21 25 24 21 18 14 15 12
21 22 20 18 18 19 20 20 21 22 16 7 7 4 3 3 4 4 3 2 4 5 18 22 5 4 6 3 3 4 2 3 2 2 6 3 16 21 28 35 35 30 26 25 23 20 23 24 22 18 16 15 12 7
21 22 22 22 23 20 23 23 23 25 12 5 5 5 7 7 6 7 7 9 13 19 22 8 8 6 3 3 1 4 3 3 6 6 3 11 27 25 25 25 30 35 30 28 24 27 28 25 23 18 15 13 9 6
23 23 29 29 27 23 24 24 23 28 5 6 5 4 4 2 3 5 8 7 7 26 18 7 3 3 1 4 4 6 9 8 4 4 13 20 29 27 26 25 26 34 32 27 31 31 27 22 17 17 15 10 7 6
25 29 24 26 30 32 29 26 16 9 9 6 5 10 12 8 6 5 6 6 12 22 3 3 4 6 4 4 5 5 5 4 7 10 14 15 22 23 26 25 27 32 33 33 30 25 20 17 16 16 11 8 7 6
20 20 17 21 33 35 27 21 10 7 7 9 3 8 7 12 7 3 7 12 5 17 9 5 8 3 5 5 3 3 11 6 5 9 11 16 22 27 25 28 34 33 31 27 23 21 19 19 14 11 10 7 6 5
18 14 20 30 44 19 11 10 8 4 6 2 6 10 5 7 6 8 10 19 13 10 9 2 3 4 3 3 4 13 14 14 19 16 16 20 27 32 31 29 27 25 23 23 22 20 17 13 13 11 7 8 6 7
16 18 29 41 46 8 5 5 15 6 4 5 5 5 4 2 7 9 12 16 11 8 3 3 4 5 8 16 28 27 24 24 26 26 26 30 31 30 28 27 27 26 23 21 18 16 15 12 8 6 6 6 9 8
19 29 37 43 24 7 6 8 5 5 6 4 4 4 1 4 3 8 9 8 5 3 3 4 5 7 9 18 22 23 24 27 31 36 37 35 30 27 27 26 23 19 17 14 13 12 11 8 4 5 8 9 11 14
25 42 33 32 5 4 3 6 10 11 6 5 5 3 2 1 4 2 1 1 4 3 7 12 17 19 21 23 24 22 25 26 27 30 31 31 30 27 24 22 20 17 14 11 10 8 6 5 5 6 9 11 13 14
42 32 21 10 7 4 2 15 4 6 3 3 5 1 1 1 2 3 1 3 1 12 23 24 26 25 28 28 26 27 28 31 32 31 29 27 23 19 16 14 9 7 8 8 8 7 8 6 9 12 15 17 18 16
37 13 8 10 7 4 6 2 4 5 4 3 2 2 1 1 2 2 1 3 9 26 31 32 32 33 30 28 28 25 22 21 22 20 18 17 17 14 10 8 6 6 5 5 7 8 10 13 16 17 17 17 17 18
9 6 7 5 5 5 5 5 3 3 2 2 3 2 1 2 1 2 0 2 16 27 28 26 24 24 26 23 22 20 16 14 16 17 14 10 10 10 10 9 8 8 9 11 11 12 13 15 16 17 16 17 19 18
4 4 5 4 2 4 4 5 4 4 3 3 2 5 4 2 1 1 2 12 22 23 23 21 18 16 16 18 18 16 14 10 10 12 11 9 7 7 7 6 5 6 9 11 13 13 13 14 16 18 20 22 21 21
4 5 8 10 7 8 4 5 5 4 3 4 3 3 3 2 3 2 10 17 20 20 19 19 18 18 18 17 15 14 13 11 9 8 8 7 6 7 7 7 8 9 10 11 12 14 16 19 20 23 24 23 21 20
4 4 5 7 6 4 4 3 2 2 2 4 4 3 3 3 1 3 6 21 21 22 21 18 16 15 16 15 14 13 12 12 12 11 10 8 7 6 6 7 9 12 15 18 20 22 24 24 24 24 24 23 21 19
3 7 11 4 5 5 3 3 4 4 9 8 3 3 2 4 4 11 17 22 20 20 22 21 19 18 18 16 14 13 12 11 9 9 8 8 9 8 8 9 10 13 14 13 11 11 12 14 15 15 16 18 19 18
3 4 4 3 4 3 3 3 3 10 14 8 8 11 11 10 14 14 16 17 18 19 21 21 21 17 15 14 14 12 10 7 5 4 5 6 6 4 5 7 6 5 4 5 7 7 7 9 10 10 11 11 11 10
6 4 5 5 3 5 11 18 15 13 9 11 17 14 10 7 11 12 12 12 16 18 18 17 16 14 13 10 7 5 3 3 3 5 5 5 5 5 6 8 8 8 7 7 9 10 9 8 8 8 7 7 8 9
6 4 3 3 2 8 7 5 5 5 5 5 6 4 6 5 5 4 9 12 11 12 12 11 9 8 5 4 4 4 5 6 7 7 6 7 8 10 11 12 14 15 14 14 13 12 10 10 10 9 8 8 8 9
11 14 13 5 2 2 5 5 5 4 7 4 5 4 4 4 4 3 7 9 8 7 7 7 6 5 4 5 6 7 7 6 6 6 7 6 7 8 10 11 11 12 12 12 12 13 12 10 10 9 7 7 7 7
Wind_Direction
230 214 215 227 233 238 242 245 248 251 251 250 252 254 258 264 262 254 251 244 244 259 270 271 270 240 202 215 203 201 179 189 180 182 188 186 175 200 128 167 173 153 145 173 101 107 264 205 153 174 191 132 160 150
245 219 225 235 239 245 248 248 250 253 254 252 252 254 256 264 274 261 251 244 257 250 264 276 284 226 229 201 220 199 184 177 170 156 185 170 217 151 144 181 178 187 174 167 182 197 206 200 149 156 149 146 148 147
234 232 236 238 242 248 254 255 255 254 254 253 253 255 254 256 269 247 253 249 238 271 278 257 260 213 226 217 220 222 193 174 168 180 160 193 188 146 150 201 98 170 141 151 113 203 175 174 158 156 154 146 148 143
236 235 240 245 250 253 255 256 256 254 253 252 253 255 261 255 253 251 257 251 252 256 268 249 228 247 206 195 204 219 208 182 165 152 110 126 160 179 184 151 143 184 153 153 183 140 168 180 170 157 149 144 139 141
237 238 241 245 250 255 255 255 254 251 250 253 253 253 259 270 243 258 264 258 248 250 296 296 210 218 193 208 188 214 209 182 169 112 146 197 272 112 57 81 193 183 160 166 202 176 171 186 183 164 160 156 157 149
235 239 241 245 253 256 256 254 250 249 248 251 251 254 259 271 248 263 265 256 246 244 263 267 217 186 172 187 194 188 169 173 161 144 188 156 347 107 113 180 237 184 179 177 164 161 163 156 154 159 159 157 150 153
240 240 241 247 253 253 254 251 249 245 247 245 243 245 253 268 238 234 236 186 163 233 227 246 243 176 170 173 159 167 247 4 123 118 109 129 117 67 65 194 205 178 181 175 169 154 142 158 157 158 153 146 148 141
245 242 242 247 250 252 249 245 246 246 242 235 234 242 258 279 255 262 268 261 260 268 229 239 276 155 153 104 83 118 112 351 41 90 122 112 109 103 215 237 161 162 135 166 172 174 175 162 153 152 153 150 145 142
250 244 241 244 246 252 244 242 242 245 230 220 225 240 256 259 250 255 255 248 258 230 258 234 147 171 140 83 85 75 90 69 50 82 216 125 134 203 220 197 196 150 159 150 168 167 159 156 154 155 161 161 164 156
253 243 241 239 243 245 245 236 235 234 214 205 213 231 236 214 241 254 231 214 214 196 230 243 143 141 132 105 99 104 82 118 111 217 111 99 243 243 223 192 182 154 144 159 150 152 157 158 160 161 166 174 178 176
255 242 242 242 238 239 241 224 222 206 196 195 207 233 265 281 247 228 229 207 174 225 228 204 144 119 113 113 118 99 146 172 113 208 133 157 272 233 208 193 195 184 183 179 173 172 175 176 167 165 163 164 174 180
253 244 244 238 223 237 229 214 210 191 199 202 219 252 281 265 240 231 218 138 213 217 242 162 149 112 105 100 95 122 115 93 177 168 116 223 226 204 190 187 182 188 188 189 190 178 182 182 182 181 172 170 179 173
246 234 238 229 219 227 217 209 211 192 191 192 217 255 207 230 254 224 192 216 222 179 219 162 135 116 101 88 95 108 91 164 131 21 226 225 225 191 184 175 175 173 174 170 169 170 165 166 171 179 173 179 175 168
231 226 234 235 227 222 218 206 206 186 191 195 187 240 210 230 246 225 217 230 258 229 155 151 105 110 127 115 144 111 141 107 106 206 239 224 213 190 192 195 190 182 175 173 169 171 177 176 171 171 174 168 166 174
233 233 235 231 225 219 205 201 198 185 202 213 216 221 217 237 232 236 257 298 289 178 153 118 74 93 84 111 122 108 119 200 211 222 225 216 183 188 191 193 196 194 182 181 184 179 174 173 172 169 169 165 175 219
243 241 234 229 225 211 201 198 193 198 196 207 249 265 273 300 302 271 262 246 263 159 145 71 85 74 153 139 141 188 159 207 222 199 203 193 191 192 194 189 188 191 189 181 174 171 168 169 178 175 170 181 206 246
249 247 237 222 205 200 195 194 189 199 201 210 225 229 253 277 265 274 309 266 182 155 129 126 126 193 116 142 197 187 200 214 211 201 210 208 191 189 190 186 177 172 168 165 164 166 169 172 173 179 190 211 240 252
235 229 212 196 186 178 188 191 169 202 207 220 201 258 219 237 240 286 290 307 271 183 158 177 141 164 182 183 231 215 218 225 184 156 183 177 176 175 179 167 158 160 160 160 164 169 174 171 177 195 204 226 218 233
215 198 184 171 168 160 149 184 162 207 237 201 252 260 257 259 275 275 310 311 301 238 158 128 134 182 207 206 180 185 181 164 149 146 158 169 164 158 156 157 158 161 168 165 172 175 175 187 200 212 221 209 239 270
203 185 171 171 166 142 125 157 174 183 182 217 212 232 235 223 339 324 298 304 276 227 141 177 195 194 196 181 174 177 165 147 147 142 149 153 155 156 156 156 155 158 152 144 149 158 167 177 192 203 224 261 277 276
180 170 172 165 171 175 172 159 136 164 143 175 156 168 240 297 347 357 279 228 218 202 175 213 197 188 210 189 187 168 152 157 157 154 155 154 158 163 158 157 157 159 163 167 176 182 190 195 197 246 263 273 278 285
163 161 161 174 193 224 219 148 150 139 142 153 154 154 187 329 328 333 160 41 238 173 145 143 133 136 148 155 152 149 151 159 155 149 150 150 151 154 154 153 157 162 173 184 187 185 191 221 245 273 287 291 288 281
159 154 156 166 201 204 245 151 113 147 144 159 139 145 53 85 343 320 255 254 245 148 142 132 123 129 126 126 130 135 146 140 131 132 136 138 140 147 155 163 173 182 181 184 194 224 227 257 282 289 290 291 289 282
152 134 164 181 197 176 167 129 107 107 125 171 124 96 204 77 46 287 245 290 136 127 129 125 122 118 122 123 122 125 131 141 139 140 147 154 152 151 153 153 168 191 216 233 244 257 267 272 279 284 288 291 292 288
109 180 155 166 163 203 143 143 148 112 131 131 109 137 115 143 186 263 243 236 140 127 126 130 135 139 129 123 124 125 131 140 142 141 142 151 154 165 171 185 208 227 244 255 261 267 271 275 278 285 289 291 290 286
99 172 170 129 156 163 166 130 155 148 123 111 127 140 145 150 110 268 168 168 140 137 139 140 142 146 142 142 139 139 139 144 150 151 158 169 188 204 212 222 234 243 252 258 263 265 268 273 279 286 289 290 289 286
151 173 197 206 160 136 99 88 113 100 115 144 164 148 116 135 209 168 150 164 152 155 162 168 173 165 159 159 162 166 173 181 186 186 185 190 215 238 248 257 259 259 264 270 275 281 281 283 286 287 288 288 286 285
202 190 152 162 111 111 106 74 74 89 126 142 112 73 117 197 34 38 155 179 184 185 186 174 171 171 165 164 162 165 171 180 186 185 188 195 209 233 250 260 274 281 281 281 281 281 279 280 281 283 284 285 286 283
42 105 111 47 48 61 88 154 158 141 140 151 103 142 97 63 35 113 137 151 162 176 174 171 163 173 174 171 175 179 182 184 191 197 216 228 235 246 267 277 279 283 290 297 297 292 284 283 287 288 283 276 272 272
57 60 92 55 69 52 3 19 87 120 133 123 116 110 102 84 86 129 143 149 160 168 164 165 162 168 172 177 174 164 161 165 178 204 238 262 263 251 243 278 297 309 313 315 309 315 312 302 299 295 286 276 268 262
92 79 60 47 64 47 88 106 105 112 94 90 110 106 108 110 100 120 141 151 163 166 167 167 169 173 170 166 163 173 194 233 256 272 279 282 285 278 277 292 297 278 278 280 281 286 297 305 296 290 284 277 263 249
50 68 100 87 77 63 95 55 74 80 88 88 95 102 109 100 90 132 142 144 153 153 157 157 156 151 164 188 213 237 258 268 270 270 260 256 270 274 271 273 272 272 270 268 268 268 271 284 290 280 268 257 252 248
93 87 101 106 107 71 58 86 64 68 50 65 52 60 65 79 107 124 152 159 161 151 149 161 173 181 203 232 242 250 255 254 259 269 275 272 268 272 277 280 283 285 285 281 273 267 260 258 266 263 255 245 230 207